Weather History for 94592 - June, 2013

Change the Weather History Date:

Friday, June 14, 2013

  Actual Average Record
Temperature  
Mean Temperature 60 °F -  
Max Temperature 71 °F - - ()
Min Temperature 48 °F - - ()
Degree Days  
Heating Degree Days 5    
Growing Degree Days 10 (Base 50)    
Moisture  
Dew Point 51 °F    
Average Humidity 77    
Maximum Humidity 94    
Minimum Humidity 36    
Precipitation  
Precipitation 0.00 in - - ()
Sea Level Pressure  
Sea Level Pressure 29.81 in    
Wind  
Wind Speed 5 mph ()    
Max Wind Speed 12 mph    
Max Gust Speed -    
Visibility 6.2 miles    
Events      
T = Trace of Precipitation, MM = Missing Value Source: Averaged Metar Reports

Daily Weather History Graph

Daily Weather History Graph

Search for Another Location

Airport or City:

Trip Planner

Search our weather history database for the weather conditions in past years. The results will help you decide how hot, cold, wet, or windy it might be!

Date:

Astronomy

Jun. 14, 2013 Rise Set
Actual Time 6:35 AM AEST 4:57 PM AEST
Civil Twilight 6:09 AM AEST 5:23 PM AEST
Nautical Twilight 5:40 AM AEST 5:52 PM AEST
Astronomical Twilight 5:11 AM AEST 6:21 PM AEST
Moon 10:06 AM AEST (6/14) 9:49 PM AEST (6/14)
Length of Visible Light 11h 13m
Length of Day
10h 22m
Waxing Crescent, 25% of the Moon is Illuminated
Jun 14
Waxing Crescent
Jun 17
First Quarter
Jun 23
Full
Jun 30
Last Quarter
Jul 8
New

Hourly Weather History & Observations

Time (AEST) Temp. Dew Point Humidity Pressure Visibility Wind Dir Wind Speed Gust Speed Precip Events Conditions
12:00 AM 56 °F 54 °F 90% 29.85 in - NW 5.8 mph - -  
12:00 AM 55.4 °F 53.6 °F 94% 29.83 in 6.2 mi NW 5.8 mph - N/A   Unknown
12:30 AM 57.2 °F 55.4 °F 94% 29.83 in 6.2 mi SSW 3.5 mph - N/A   Unknown
1:00 AM 55.4 °F 53.6 °F 94% 29.83 in 6.2 mi WSW 6.9 mph - N/A   Unknown
1:30 AM 55.4 °F 53.6 °F 94% 29.83 in 6.2 mi WSW 9.2 mph - N/A   Unknown
2:00 AM 55.4 °F 53.6 °F 94% 29.83 in 6.2 mi WSW 6.9 mph - N/A   Unknown
2:30 AM 53.6 °F 51.8 °F 94% 29.80 in 6.2 mi SSW 1.2 mph - N/A   Unknown
3:00 AM 53 °F 51 °F 92% 29.83 in - WSW 1.2 mph - -  
3:00 AM 53.6 °F 51.8 °F 94% 29.83 in 6.2 mi WSW 1.2 mph - N/A   Unknown
3:30 AM 53.6 °F 50.0 °F 88% 29.80 in 6.2 mi East 1.2 mph - N/A   Unknown
4:00 AM 51.8 °F 50.0 °F 94% 29.80 in 6.2 mi SW 4.6 mph - N/A   Unknown
4:30 AM 50.0 °F 48.2 °F 94% 29.80 in 6.2 mi WNW 3.5 mph - N/A   Unknown
5:00 AM 51.8 °F 50.0 °F 94% 29.80 in 6.2 mi WSW 2.3 mph - N/A   Unknown
5:30 AM 51.8 °F 50.0 °F 94% 29.80 in 6.2 mi WSW 4.6 mph - N/A   Unknown
6:00 AM 51 °F 49 °F 92% 29.82 in - SW 4.6 mph - -  
6:00 AM 51.8 °F 50.0 °F 94% 29.80 in 6.2 mi SW 4.6 mph - N/A   Unknown
6:30 AM 50.0 °F 48.2 °F 94% 29.83 in 6.2 mi WSW 1.2 mph - N/A   Unknown
7:00 AM 51.8 °F 50.0 °F 94% 29.83 in 6.2 mi SW 3.5 mph - N/A   Unknown
7:30 AM 53.6 °F 50.0 °F 88% 29.83 in 6.2 mi WSW 2.3 mph - N/A   Unknown
8:00 AM 55.4 °F 51.8 °F 88% 29.83 in 6.2 mi Calm Calm - N/A   Unknown
8:30 AM 59.0 °F 53.6 °F 82% 29.83 in 6.2 mi West 3.5 mph - N/A   Unknown
9:00 AM 61 °F 53 °F 68% 29.86 in - NNW 5.8 mph - -  
9:00 AM 60.8 °F 53.6 °F 77% 29.86 in 6.2 mi NNW 5.8 mph - N/A   Unknown
9:30 AM 62.6 °F 51.8 °F 68% 29.83 in 6.2 mi WNW 4.6 mph - N/A   Unknown
10:00 AM 64.4 °F 51.8 °F 64% 29.83 in 6.2 mi WNW 4.6 mph - N/A   Unknown
10:30 AM 66.2 °F 51.8 °F 60% 29.83 in 6.2 mi SSW 2.3 mph - N/A   Unknown
11:00 AM 68.0 °F 53.6 °F 60% 29.83 in 6.2 mi WNW 3.5 mph - N/A   Unknown
11:30 AM 68.0 °F 51.8 °F 56% 29.80 in 6.2 mi North 5.8 mph - N/A   Unknown
12:00 PM 68 °F 49 °F 41% 29.80 in - WSW 4.6 mph - -  
12:00 PM 68.0 °F 50.0 °F 52% 29.80 in 6.2 mi WSW 4.6 mph - N/A   Unknown
12:30 PM 69.8 °F 51.8 °F 53% 29.77 in 6.2 mi SSW 4.6 mph - N/A   Unknown
1:00 PM 69.8 °F 51.8 °F 53% 29.77 in 6.2 mi NNE 6.9 mph - N/A   Unknown
1:30 PM 69.8 °F 50.0 °F 49% 29.77 in 6.2 mi NNE 9.2 mph - N/A   Scattered Clouds
2:00 PM 71.6 °F 50.0 °F 46% 29.74 in 6.2 mi West 4.6 mph - N/A   Unknown
2:30 PM 69.8 °F 48.2 °F 46% 29.74 in 6.2 mi WNW 11.5 mph - N/A   Unknown
3:00 PM 70 °F 49 °F 36% 29.76 in - NW 10.4 mph - -  
3:00 PM 69.8 °F 48.2 °F 46% 29.74 in 6.2 mi NW 10.4 mph - N/A   Unknown
3:30 PM 69.8 °F 50.0 °F 49% 29.74 in 6.2 mi NW 8.1 mph - N/A   Unknown
4:00 PM 68.0 °F 50.0 °F 52% 29.74 in 6.2 mi NNW 6.9 mph - N/A   Unknown
4:30 PM 66.2 °F 50.0 °F 56% 29.74 in 6.2 mi NW 4.6 mph - N/A   Unknown
5:00 PM 60.8 °F 51.8 °F 72% 29.77 in 6.2 mi NNW 5.8 mph - N/A   Unknown
5:30 PM 59.0 °F 53.6 °F 82% 29.77 in 6.2 mi WSW 6.9 mph - N/A   Unknown
6:00 PM 57 °F 52 °F 79% 29.81 in - West 6.9 mph - -  
6:00 PM 57.2 °F 51.8 °F 82% 29.80 in 6.2 mi West 6.9 mph - N/A   Unknown
6:30 PM 57.2 °F 51.8 °F 82% 29.80 in 6.2 mi WSW 5.8 mph - N/A   Unknown
7:00 PM 55.4 °F 50.0 °F 82% 29.83 in 6.2 mi WSW 5.8 mph - N/A   Unknown
7:30 PM 53.6 °F 50.0 °F 88% 29.83 in 6.2 mi WSW 5.8 mph - N/A   Unknown
8:00 PM 53.6 °F 50.0 °F 88% 29.83 in 6.2 mi WSW 6.9 mph - N/A   Unknown
8:30 PM 51.8 °F 50.0 °F 94% 29.86 in 6.2 mi WSW 6.9 mph - N/A   Unknown
9:00 PM 52 °F 49 °F 85% 29.87 in - WSW 5.8 mph - -  
9:00 PM 51.8 °F 48.2 °F 88% 29.86 in 6.2 mi WSW 5.8 mph - N/A   Unknown
9:30 PM 51.8 °F 48.2 °F 88% 29.86 in 6.2 mi WSW 5.8 mph - N/A   Unknown
10:00 PM 51.8 °F 48.2 °F 88% 29.86 in 6.2 mi WSW 6.9 mph - N/A   Unknown
10:30 PM 50.0 °F 48.2 °F 94% 29.86 in 6.2 mi WSW 6.9 mph - N/A   Unknown
11:00 PM 50.0 °F 46.4 °F 87% 29.86 in 6.2 mi SW 6.9 mph - N/A   Unknown
11:30 PM 48.2 °F 46.4 °F 93% 29.86 in 6.2 mi WSW 4.6 mph - N/A   Unknown